This is the latest recevied weather packets stored in our database for station/object W7TRD. If no packets are shown the sender has not sent any weather packets the latest 1 day(s).
| Time | Temp. | Humidity | Pressure | Rain* | Wind** | Luminosity | Snow |
|---|---|---|---|---|---|---|---|
| 1778007349 | 15.56° C | 83% | 1017.8 hPa | 0 mm | 0.45 m/s, 343° | 224 W/m² | - |
| 1778007045 | 15° C | 81% | 1017.7 hPa | 0 mm | 0 m/s | 239 W/m² | - |
| 1778006742 | 15° C | 83% | 1017.7 hPa | 0 mm | 0 m/s | 200 W/m² | - |
| 1778006439 | 15° C | 83% | 1017.7 hPa | 0 mm | 0.45 m/s, 214° | 169 W/m² | - |
| 1778006136 | 15° C | 83% | 1017.7 hPa | 0 mm | 0 m/s | 170 W/m² | - |
| 1778005833 | 15° C | 85% | 1017.8 hPa | 0 mm | 0 m/s | 178 W/m² | - |
| 1778005529 | 15° C | 84% | 1017.8 hPa | 0 mm | 0 m/s | 191 W/m² | - |
| 1778005226 | 15° C | 85% | 1017.7 hPa | 0 mm | 0 m/s | 180 W/m² | - |
| 1778004923 | 15° C | 82% | 1017.8 hPa | 0 mm | 0 m/s | 169 W/m² | - |
| 1778004620 | 15° C | 83% | 1017.8 hPa | 0 mm | 0 m/s | 181 W/m² | - |
| 1778004316 | 14.44° C | 85% | 1017.8 hPa | 0 mm | 0 m/s | 159 W/m² | - |
| 1778004020 | 14.44° C | 84% | 1017.7 hPa | 0 mm | 0.45 m/s, 169° | 123 W/m² | - |
| 1778003708 | 14.44° C | 85% | 1017.9 hPa | 0 mm | 0 m/s | 90 W/m² | - |
| 1778003406 | 14.44° C | 84% | 1017.6 hPa | 0 mm | 0 m/s | 92 W/m² | - |
| 1778003103 | 15° C | 83% | 1017.7 hPa | 0 mm | 0.45 m/s, 183° | 94 W/m² | - |
| 1778002799 | 15° C | 84% | 1017.5 hPa | 0 mm | 0 m/s | 118 W/m² | - |
| 1778002495 | 15° C | 83% | 1017.7 hPa | 0 mm | 0 m/s | 143 W/m² | - |
| 1778002192 | 14.44° C | 83% | 1017.5 hPa | 0 mm | 0 m/s | 170 W/m² | - |
| 1778001891 | 14.44° C | 85% | 1017.6 hPa | 0 mm | 0 m/s | 174 W/m² | - |
| 1778001590 | 15° C | 82% | 1017.7 hPa | 0 mm | 0.45 m/s, 163° | 134 W/m² | - |
| 1778001287 | 15° C | 84% | 1017.3 hPa | 0 mm | 0 m/s | 150 W/m² | - |
| 1778000984 | 15° C | 85% | 1017.6 hPa | 0 mm | 0 m/s | 188 W/m² | - |
| 1778000681 | 14.44° C | 84% | 1017.5 hPa | 0 mm | 0 m/s | 199 W/m² | - |
| 1778000376 | 13.89° C | 86% | 1017.1 hPa | 0 mm | 0 m/s | 204 W/m² | - |
| 1778000072 | 13.89° C | 88% | 1017.4 hPa | 0 mm | 0 m/s | 215 W/m² | - |
* Rain latest hour (hover to see other rain measurements)
** Current wind speed in m/s (hover to see current wind gust speed)